Wetterdaten: Woche 27.04.09 - 03.05.09 (KW18)
Datum Zeit Temperatur Luftfeuchte Luftdruck Niederschlag Windrichtung Wind
27.04.2009 00:00 10,8 C 61 % 1003,2 hPa 0,0 l/m N 0,1 km/h (0 Bft)
27.04.2009 01:00 9,5 C 66 % 1002,9 hPa 0,0 l/m N 1,2 km/h (1 Bft)
27.04.2009 02:00 8,5 C 70 % 1003,1 hPa 0,0 l/m N 0,5 km/h (0 Bft)
27.04.2009 03:00 8,1 C 73 % 1003,2 hPa 0,0 l/m S-SW 1,3 km/h (1 Bft)
27.04.2009 04:00 7,9 C 75 % 1003,6 hPa 0,0 l/m S-SW 2,3 km/h (1 Bft)
27.04.2009 05:00 8,0 C 75 % 1004,8 hPa 0,0 l/m O 2,7 km/h (1 Bft)
27.04.2009 06:00 8,1 C 74 % 1005,8 hPa 0,0 l/m S-SW 2,4 km/h (1 Bft)
27.04.2009 07:00 8,5 C 74 % 1005,9 hPa 0,0 l/m SO 1,3 km/h (1 Bft)
27.04.2009 08:00 9,7 C 80 % 1006,6 hPa 0,0 l/m S-SW 9,0 km/h (2 Bft)
27.04.2009 09:00 11,1 C 82 % 1006,1 hPa 0,0 l/m S-SW 7,1 km/h (2 Bft)
27.04.2009 10:00 13,0 C 73 % 1005,4 hPa 0,0 l/m S-SW 9,1 km/h (2 Bft)
27.04.2009 11:00 14,1 C 64 % 1005,0 hPa 0,0 l/m NW 6,4 km/h (2 Bft)
27.04.2009 12:00 15,3 C 59 % 1004,4 hPa 0,0 l/m O 6,4 km/h (2 Bft)
27.04.2009 13:00 16,1 C 55 % 1003,6 hPa 0,0 l/m O 9,3 km/h (2 Bft)
27.04.2009 14:00 16,1 C 54 % 1002,9 hPa 0,0 l/m N-NO 8,2 km/h (2 Bft)
27.04.2009 15:00 16,2 C 55 % 1002,5 hPa 0,0 l/m NO 8,0 km/h (2 Bft)
27.04.2009 16:00 16,3 C 55 % 1002,1 hPa 0,0 l/m NO 9,8 km/h (2 Bft)
27.04.2009 17:00 16,2 C 57 % 1001,6 hPa 0,0 l/m N-NO 9,2 km/h (2 Bft)
27.04.2009 18:00 15,5 C 60 % 1001,2 hPa 0,0 l/m N 8,4 km/h (2 Bft)
27.04.2009 19:00 14,9 C 64 % 1000,8 hPa 0,0 l/m N-NO 4,3 km/h (1 Bft)
27.04.2009 20:00 13,7 C 72 % 1000,4 hPa 0,0 l/m NW 2,8 km/h (1 Bft)
27.04.2009 21:00 13,0 C 75 % 1000,5 hPa 0,0 l/m N 4,5 km/h (1 Bft)
27.04.2009 22:00 12,4 C 79 % 1000,6 hPa 0,0 l/m N 3,9 km/h (1 Bft)
27.04.2009 23:00 11,2 C 83 % 1000,1 hPa 0,0 l/m N 4,9 km/h (1 Bft)
28.04.2009 00:00 10,1 C 85 % 999,8 hPa 0,0 l/m N 4,5 km/h (1 Bft)
28.04.2009 01:00 9,5 C 86 % 999,6 hPa 0,0 l/m N-NW 3,3 km/h (1 Bft)
28.04.2009 02:00 9,3 C 87 % 999,6 hPa 0,0 l/m N 0,1 km/h (0 Bft)
28.04.2009 03:00 9,8 C 86 % 999,5 hPa 0,0 l/m N 0,8 km/h (0 Bft)
28.04.2009 04:00 9,9 C 86 % 999,6 hPa 0,0 l/m W-NW 2,4 km/h (1 Bft)
28.04.2009 05:00 9,8 C 82 % 999,6 hPa 0,0 l/m NW 3,5 km/h (1 Bft)
28.04.2009 06:00 9,6 C 84 % 999,9 hPa 0,0 l/m W-NW 6,3 km/h (2 Bft)
28.04.2009 07:00 9,2 C 87 % 1000,4 hPa 0,0 l/m W 6,3 km/h (2 Bft)
28.04.2009 08:00 8,8 C 88 % 1000,7 hPa 0,0 l/m W 9,9 km/h (2 Bft)
28.04.2009 09:00 8,7 C 90 % 1001,0 hPa 0,0 l/m W-SW 9,4 km/h (2 Bft)
28.04.2009 10:00 8,5 C 89 % 1001,8 hPa 0,0 l/m W-SW 13,7 km/h (3 Bft)
28.04.2009 11:00 8,8 C 80 % 1002,6 hPa 0,0 l/m W-NW 19,8 km/h (4 Bft)
28.04.2009 12:00 9,1 C 81 % 1003,2 hPa 0,0 l/m W-NW 12,6 km/h (3 Bft)
28.04.2009 13:00 9,5 C 82 % 1003,6 hPa 0,0 l/m W-SW 15,3 km/h (3 Bft)
28.04.2009 14:00 9,4 C 81 % 1004,1 hPa 0,0 l/m W-SW 12,6 km/h (3 Bft)
28.04.2009 15:00 9,1 C 84 % 1004,5 hPa 0,2 l/m W-SW 15,0 km/h (3 Bft)
28.04.2009 16:00 8,7 C 83 % 1005,0 hPa 0,0 l/m W-NW 7,1 km/h (2 Bft)
28.04.2009 17:00 8,1 C 88 % 1005,6 hPa 0,2 l/m W-SW 11,9 km/h (2 Bft)
28.04.2009 18:00 7,4 C 85 % 1006,2 hPa 0,6 l/m W 10,3 km/h (2 Bft)
28.04.2009 19:00 6,8 C 90 % 1006,3 hPa 0,4 l/m S-SW 11,0 km/h (2 Bft)
28.04.2009 20:00 6,1 C 93 % 1006,6 hPa 0,0 l/m SW 15,2 km/h (3 Bft)
28.04.2009 21:00 6,0 C 93 % 1007,2 hPa 0,2 l/m SW 10,9 km/h (2 Bft)
28.04.2009 22:00 5,9 C 91 % 1007,3 hPa 0,0 l/m SW 13,0 km/h (3 Bft)
28.04.2009 23:00 5,7 C 93 % 1007,1 hPa 0,0 l/m SW 7,6 km/h (2 Bft)
29.04.2009 00:00 5,4 C 94 % 1006,9 hPa 0,0 l/m S 2,9 km/h (1 Bft)
29.04.2009 01:00 5,2 C 95 % 1006,8 hPa 0,0 l/m N 1,5 km/h (1 Bft)
29.04.2009 02:00 5,2 C 95 % 1006,4 hPa 0,0 l/m SO 2,3 km/h (1 Bft)
29.04.2009 03:00 4,9 C 95 % 1006,2 hPa 0,0 l/m N 0,8 km/h (0 Bft)
29.04.2009 04:00 4,7 C 96 % 1006,1 hPa 0,0 l/m N 0,3 km/h (0 Bft)
29.04.2009 05:00 4,7 C 96 % 1006,1 hPa 0,0 l/m N 0,5 km/h (0 Bft)
29.04.2009 06:00 4,6 C 96 % 1006,1 hPa 0,0 l/m N-NO 2,1 km/h (1 Bft)
29.04.2009 07:00 5,1 C 95 % 1006,0 hPa 0,0 l/m N-NO 1,6 km/h (1 Bft)
29.04.2009 08:00 6,4 C 90 % 1006,4 hPa 0,0 l/m S-SW 6,8 km/h (2 Bft)
29.04.2009 09:00 7,4 C 88 % 1006,6 hPa 0,0 l/m SW 9,7 km/h (2 Bft)
29.04.2009 10:00 8,1 C 86 % 1007,2 hPa 0,0 l/m SW 10,9 km/h (2 Bft)
29.04.2009 11:00 7,9 C 87 % 1007,9 hPa 0,0 l/m S-SW 18,5 km/h (3 Bft)
29.04.2009 12:00 7,6 C 90 % 1008,4 hPa 0,4 l/m W-SW 15,7 km/h (3 Bft)
29.04.2009 13:00 7,5 C 90 % 1009,2 hPa 0,4 l/m W-SW 19,0 km/h (3 Bft)
29.04.2009 14:00 6,9 C 90 % 1009,9 hPa 0,4 l/m W-NW 20,5 km/h (4 Bft)
29.04.2009 15:00 6,6 C 90 % 1010,5 hPa 0,4 l/m W 22,5 km/h (4 Bft)
29.04.2009 16:00 7,2 C 89 % 1011,0 hPa 0,2 l/m W 15,7 km/h (3 Bft)
29.04.2009 17:00 7,7 C 89 % 1011,3 hPa 0,2 l/m W-NW 7,5 km/h (2 Bft)
29.04.2009 18:00 8,6 C 87 % 1011,6 hPa 0,0 l/m N 5,9 km/h (2 Bft)
29.04.2009 19:00 8,0 C 92 % 1012,1 hPa 0,0 l/m SW 7,3 km/h (2 Bft)
29.04.2009 20:00 7,7 C 92 % 1012,9 hPa 0,0 l/m SW 7,2 km/h (2 Bft)
29.04.2009 21:00 7,2 C 93 % 1013,7 hPa 0,4 l/m W-SW 11,3 km/h (2 Bft)
29.04.2009 22:00 6,8 C 94 % 1014,3 hPa 0,4 l/m SW 3,5 km/h (1 Bft)
29.04.2009 23:00 6,6 C 95 % 1014,6 hPa 0,0 l/m SW 2,4 km/h (1 Bft)
30.04.2009 00:00 6,4 C 96 % 1015,0 hPa 0,0 l/m SW 2,9 km/h (1 Bft)
30.04.2009 01:00 6,1 C 96 % 1015,0 hPa 0,0 l/m S-SW 2,5 km/h (1 Bft)
30.04.2009 02:00 5,9 C 96 % 1015,2 hPa 0,0 l/m S-SW 5,2 km/h (1 Bft)
30.04.2009 03:00 5,9 C 97 % 1015,4 hPa 0,0 l/m S-SW 5,3 km/h (1 Bft)
30.04.2009 04:00 5,9 C 96 % 1015,7 hPa 0,0 l/m S 3,5 km/h (1 Bft)
30.04.2009 05:00 5,8 C 96 % 1015,9 hPa 0,0 l/m S 4,7 km/h (1 Bft)
30.04.2009 06:00 5,8 C 96 % 1016,3 hPa 0,2 l/m SW 3,6 km/h (1 Bft)
30.04.2009 07:00 5,9 C 96 % 1016,5 hPa 0,0 l/m SW 6,0 km/h (2 Bft)
30.04.2009 08:00 6,3 C 94 % 1017,0 hPa 0,0 l/m S-SW 6,7 km/h (2 Bft)
30.04.2009 09:00 6,7 C 95 % 1017,2 hPa 0,2 l/m S-SW 8,2 km/h (2 Bft)
30.04.2009 10:00 8,1 C 90 % 1017,4 hPa 0,0 l/m SW 9,0 km/h (2 Bft)
30.04.2009 11:00 8,9 C 88 % 1017,4 hPa 0,0 l/m S-SW 15,4 km/h (3 Bft)
30.04.2009 12:00 8,3 C 90 % 1017,4 hPa 0,0 l/m SW 12,8 km/h (3 Bft)
30.04.2009 13:00 9,3 C 86 % 1017,3 hPa 0,0 l/m S-SW 17,0 km/h (3 Bft)
30.04.2009 14:00 10,5 C 80 % 1017,3 hPa 0,0 l/m SW 18,8 km/h (3 Bft)
30.04.2009 15:00 10,5 C 77 % 1017,1 hPa 0,0 l/m W-SW 15,8 km/h (3 Bft)
30.04.2009 16:00 10,1 C 77 % 1017,0 hPa 0,0 l/m W-SW 9,2 km/h (2 Bft)
30.04.2009 17:00 10,3 C 75 % 1017,2 hPa 0,0 l/m SW 6,4 km/h (2 Bft)
30.04.2009 18:00 10,1 C 75 % 1017,4 hPa 0,0 l/m W-SW 3,7 km/h (1 Bft)
30.04.2009 19:00 9,8 C 81 % 1017,6 hPa 0,0 l/m W-SW 1,7 km/h (1 Bft)
30.04.2009 20:00 9,3 C 86 % 1017,7 hPa 0,0 l/m N 0,4 km/h (0 Bft)
30.04.2009 21:00 8,7 C 88 % 1018,2 hPa 0,0 l/m W-SW 0,8 km/h (0 Bft)
30.04.2009 22:00 8,0 C 90 % 1018,8 hPa 0,0 l/m N 0,8 km/h (0 Bft)
30.04.2009 23:00 6,7 C 93 % 1019,0 hPa 0,0 l/m N 1,2 km/h (1 Bft)
01.05.2009 00:00 5,6 C 94 % 1019,1 hPa 0,0 l/m W 1,1 km/h (0 Bft)
01.05.2009 01:00 4,8 C 95 % 1019,0 hPa 0,0 l/m W 1,7 km/h (1 Bft)
01.05.2009 02:00 4,3 C 96 % 1018,8 hPa 0,0 l/m W 2,1 km/h (1 Bft)
01.05.2009 03:00 4,3 C 97 % 1018,6 hPa 0,0 l/m N-NW 3,7 km/h (1 Bft)
01.05.2009 04:00 3,8 C 97 % 1019,0 hPa 0,0 l/m N-NW 3,1 km/h (1 Bft)
01.05.2009 05:00 3,4 C 97 % 1019,1 hPa 0,0 l/m NW 3,5 km/h (1 Bft)
01.05.2009 06:00 3,2 C 97 % 1019,4 hPa 0,0 l/m N-NW 5,5 km/h (1 Bft)
01.05.2009 07:00 4,3 C 97 % 1019,8 hPa 0,0 l/m N-NW 2,0 km/h (1 Bft)
01.05.2009 08:00 7,3 C 92 % 1020,3 hPa 0,0 l/m N-NO 7,2 km/h (2 Bft)
01.05.2009 09:00 9,9 C 86 % 1020,6 hPa 0,0 l/m NO 10,1 km/h (2 Bft)
01.05.2009 10:00 12,6 C 76 % 1020,6 hPa 0,0 l/m O-NO 11,9 km/h (2 Bft)
01.05.2009 11:00 14,3 C 68 % 1020,6 hPa 0,0 l/m O-NO 12,6 km/h (3 Bft)
01.05.2009 12:00 14,9 C 65 % 1020,4 hPa 0,0 l/m NO 14,4 km/h (3 Bft)
01.05.2009 13:00 16,2 C 61 % 1020,3 hPa 0,0 l/m NO 13,6 km/h (3 Bft)
01.05.2009 14:00 17,5 C 55 % 1020,0 hPa 0,0 l/m NO 14,2 km/h (3 Bft)
01.05.2009 15:00 18,2 C 50 % 1019,9 hPa 0,0 l/m O-NO 15,4 km/h (3 Bft)
01.05.2009 16:00 18,6 C 47 % 1019,7 hPa 0,0 l/m NO 12,6 km/h (3 Bft)
01.05.2009 17:00 18,5 C 47 % 1019,7 hPa 0,0 l/m N-NO 11,4 km/h (2 Bft)
01.05.2009 18:00 18,3 C 45 % 1019,7 hPa 0,0 l/m NO 12,5 km/h (3 Bft)
01.05.2009 19:00 17,0 C 51 % 1020,1 hPa 0,0 l/m N-NO 10,1 km/h (2 Bft)
01.05.2009 20:00 14,4 C 65 % 1020,9 hPa 0,0 l/m N-NO 7,0 km/h (2 Bft)
01.05.2009 21:00 12,9 C 75 % 1021,8 hPa 0,2 l/m N-NW 4,5 km/h (1 Bft)
01.05.2009 22:00 12,8 C 74 % 1022,1 hPa 0,2 l/m NW 11,8 km/h (2 Bft)
01.05.2009 23:00 12,4 C 79 % 1022,3 hPa 0,0 l/m NW 8,6 km/h (2 Bft)
02.05.2009 00:00 12,3 C 77 % 1022,5 hPa 0,0 l/m N-NW 7,9 km/h (2 Bft)
02.05.2009 01:00 11,4 C 82 % 1022,9 hPa 0,0 l/m SW 5,3 km/h (1 Bft)
02.05.2009 02:00 9,9 C 90 % 1023,0 hPa 0,0 l/m SW 4,0 km/h (1 Bft)
02.05.2009 03:00 10,0 C 91 % 1023,1 hPa 0,0 l/m SW 4,1 km/h (1 Bft)
02.05.2009 04:00 9,9 C 91 % 1023,1 hPa 0,0 l/m S-SW 11,8 km/h (2 Bft)
02.05.2009 05:00 9,7 C 93 % 1023,4 hPa 0,0 l/m S-SW 8,9 km/h (2 Bft)
02.05.2009 06:00 9,6 C 93 % 1023,6 hPa 0,0 l/m SW 12,2 km/h (2 Bft)
02.05.2009 07:00 9,8 C 92 % 1023,9 hPa 0,0 l/m SW 7,0 km/h (2 Bft)
02.05.2009 08:00 10,0 C 93 % 1024,6 hPa 0,0 l/m W-SW 10,2 km/h (2 Bft)
02.05.2009 09:00 11,8 C 88 % 1024,7 hPa 0,0 l/m SW 15,0 km/h (3 Bft)
02.05.2009 10:00 13,4 C 83 % 1024,9 hPa 0,0 l/m W 9,7 km/h (2 Bft)
02.05.2009 11:00 14,9 C 77 % 1024,8 hPa 0,0 l/m SW 11,9 km/h (2 Bft)
02.05.2009 12:00 15,6 C 75 % 1024,7 hPa 0,0 l/m SW 8,4 km/h (2 Bft)
02.05.2009 13:00 17,4 C 61 % 1024,1 hPa 0,0 l/m W-NW 10,2 km/h (2 Bft)
02.05.2009 14:00 18,0 C 58 % 1023,6 hPa 0,0 l/m N 10,6 km/h (2 Bft)
02.05.2009 15:00 17,4 C 70 % 1023,1 hPa 0,0 l/m S-SW 23,1 km/h (4 Bft)
02.05.2009 16:00 15,9 C 70 % 1023,1 hPa 0,0 l/m S 22,7 km/h (4 Bft)
02.05.2009 17:00 13,3 C 74 % 1023,5 hPa 0,0 l/m S-SW 16,6 km/h (3 Bft)
02.05.2009 18:00 13,3 C 77 % 1023,7 hPa 0,0 l/m SW 11,2 km/h (2 Bft)
02.05.2009 19:00 13,3 C 77 % 1024,3 hPa 1,8 l/m W 15,0 km/h (3 Bft)
02.05.2009 20:00 11,0 C 88 % 1024,5 hPa 0,2 l/m W 5,2 km/h (1 Bft)
02.05.2009 21:00 10,6 C 91 % 1025,4 hPa 1,0 l/m O-SO 9,4 km/h (2 Bft)
02.05.2009 22:00 10,1 C 94 % 1025,9 hPa 0,0 l/m SW 9,5 km/h (2 Bft)
02.05.2009 23:00 10,1 C 92 % 1025,5 hPa 0,0 l/m W-SW 9,9 km/h (2 Bft)
03.05.2009 00:00 9,8 C 94 % 1025,5 hPa 0,2 l/m S 5,6 km/h (1 Bft)
03.05.2009 01:00 9,1 C 96 % 1024,9 hPa 0,0 l/m S-SW 1,6 km/h (1 Bft)
03.05.2009 02:00 8,4 C 97 % 1024,2 hPa 0,0 l/m S-SW 1,9 km/h (1 Bft)
03.05.2009 03:00 7,6 C 98 % 1024,1 hPa 0,0 l/m S-SW 2,5 km/h (1 Bft)
03.05.2009 04:00 7,7 C 98 % 1024,0 hPa 0,0 l/m S-SW 7,9 km/h (2 Bft)
03.05.2009 05:00 8,0 C 98 % 1023,9 hPa 0,0 l/m SW 9,8 km/h (2 Bft)
03.05.2009 06:00 7,8 C 99 % 1023,9 hPa 0,0 l/m W-SW 4,3 km/h (1 Bft)
03.05.2009 07:00 7,9 C 99 % 1023,9 hPa 0,0 l/m W-SW 4,5 km/h (1 Bft)
03.05.2009 08:00 8,4 C 99 % 1023,7 hPa 0,0 l/m SW 5,1 km/h (1 Bft)
03.05.2009 09:00 10,3 C 94 % 1023,6 hPa 0,0 l/m SW 6,4 km/h (2 Bft)
03.05.2009 10:00 12,6 C 87 % 1023,3 hPa 0,0 l/m SW 7,7 km/h (2 Bft)
03.05.2009 11:00 15,1 C 77 % 1022,9 hPa 0,0 l/m SW 9,7 km/h (2 Bft)
03.05.2009 12:00 16,8 C 69 % 1022,1 hPa 0,0 l/m SO 8,0 km/h (2 Bft)
03.05.2009 13:00 18,4 C 51 % 1021,4 hPa 0,0 l/m W 9,7 km/h (2 Bft)
03.05.2009 14:00 19,2 C 44 % 1020,6 hPa 0,0 l/m O-SO 8,8 km/h (2 Bft)
03.05.2009 15:00 19,8 C 36 % 1020,2 hPa 0,0 l/m S 9,4 km/h (2 Bft)
03.05.2009 16:00 18,8 C 38 % 1019,5 hPa 0,0 l/m W-SW 5,9 km/h (2 Bft)
03.05.2009 17:00 18,9 C 40 % 1019,2 hPa 0,0 l/m W-NW 6,8 km/h (2 Bft)
03.05.2009 18:00 16,4 C 56 % 1019,2 hPa 0,0 l/m NW 21,7 km/h (4 Bft)
03.05.2009 19:00 14,0 C 71 % 1019,3 hPa 0,0 l/m NW 21,7 km/h (4 Bft)
03.05.2009 20:00 12,5 C 79 % 1019,7 hPa 0,4 l/m N-NW 21,7 km/h (4 Bft)
03.05.2009 21:00 11,4 C 87 % 1020,4 hPa 0,6 l/m N 18,9 km/h (3 Bft)
03.05.2009 22:00 10,7 C 90 % 1020,8 hPa 3,0 l/m N 11,3 km/h (2 Bft)
03.05.2009 23:00 10,3 C 94 % 1020,9 hPa 0,4 l/m N 9,0 km/h (2 Bft)
Min-Datum _ 01.05.09 03.05.09 28.04.09 - - 27.04.09
_ Min-Zeit 06:30 15:25 01:15 - - 00:00
Minimum _ 3,0 C 34 % 999,3 hPa - - 0,0 km/h (0 Bft)
Max-Datum _ 03.05.09 30.04.09 02.05.09 03.05.09 - 03.05.09
_ Max-Zeit 15:45 06:00 22:15 22:20 - 19:50
Maximum _ 20,3 C 100 % 1026,2 hPa 3,0 l/m - 32,2 km/h
NW (5 Bft)
Durchschnitt _ 10,2 C 82 % 1014,0 hPa #12,8 l/m SW 8,2 km/h (2 Bft)